Regional Weather Roundup
Issued by NWS

Home | Current Version | Previous Version | Text Only | Print | Product List | Glossary Off
Versions: 1 2 3 4 5 6 7 8 9 10 11 12 13 14 15 16 17 18 19 20 21 22 23 24 25 26 27 28 29 30 31 32 33 34 35 36 37 38 39 40 41 42 43 44 45 46 47 48 49 50

000
ASUS43 KTOP 270308
RWRKS

WEATHER ROUNDUP FOR KANSAS
NATIONAL WEATHER SERVICE GOODLAND KS
1000 PM CDT TUE MAY 26 2015

NOTE:  "FAIR" INDICATES FEW OR NO CLOUDS BELOW 12,000 FEET WITH NO
SIGNIFICANT WEATHER AND/OR OBSTRUCTIONS TO VISIBILITY.

KSZ001>006-013>018-027>032-041>047-270400-
NORTHWEST KANSAS

CITY           SKY/WX    TMP DP  RH WIND       PRES   REMARKS
GOODLAND       PTCLDY    57  54  89 E5        30.03R
HAYS           CLEAR     63  50  63 NE9       29.99R
HILL CITY      CLEAR     58  52  80 CALM      30.00R
RUSSELL        CLEAR     62  54  74 NE6       29.97R
$$

KSZ061>065-074>080-084>089-270400-
SOUTHWEST KANSAS

CITY           SKY/WX    TMP DP  RH WIND       PRES   REMARKS
DODGE CITY     CLEAR     67  56  67 NE5       29.99R
ELKHART          N/A     61  52  72 SE6         N/A
GARDEN CITY    CLEAR     63  56  78 E7        29.99R
GREAT BEND     PTCLDY    66  55  68 NE9       29.98R
LIBERAL        CLEAR     68  54  60 E6        30.01R
PRATT          PTCLDY    70  54  56 SE6       30.00R
$$

KSZ066>073-081>083-090>101-270400-
SOUTHEAST KANSAS

CITY           SKY/WX    TMP DP  RH WIND       PRES   REMARKS
CHANUTE        CLOUDY    70  65  84 SW10      29.97R
COFFEYVILLE    CLOUDY    68  65  90 CALM      29.96F
HUTCHINSON     PTCLDY    64  59  83 CALM      29.97R
MEDICINE LODGE   N/A     71  62  73 E6        29.97R
NEWTON         CLEAR     64  57  77 S7        29.99R
PARSONS        CLOUDY    68  66  93 CALM      29.98S
WICHITA INTL   MOCLDY    68  62  81 SE9       29.97R
WICHITA JABRA  PTCLDY    65  61  87 S7        29.97R
WICHITA MCCONL MOCLDY    67  63  85 SE8       29.98R
WINFIELD       MOCLDY    69  63  81 SE3       29.98S
$$

KSZ007>012-019>026-033>040-048>060-102>105-270400-
NORTHEAST KANSAS

CITY           SKY/WX    TMP DP  RH WIND       PRES   REMARKS
CONCORDIA      MOCLDY    62  53  72 W6        29.97R
EMPORIA        MOCLDY    63  58  83 S8        29.96R
LAWRENCE       MOCLDY    65  61  87 N3        29.92R
MANHATTAN      MOCLDY    63  58  83 CALM      29.95R
MARYSVILLE     CLEAR     61  54  77 SW5       29.95R
OLATHE IND     CLOUDY    71  60  68 SW8       29.94R
OLATHE EXE     CLOUDY    71  61  70 SW6       29.93R
SALINA         PTCLDY    67  56  67 N3        29.97R
TOPEKA BILLARD PTCLDY    68  60  75 CALM      29.93R
TOPEKA FORBES  PTCLDY    67  60  78 SW5       29.93R
$$


USA.gov is the U.S. government's official web portal to all federal, state and local government web resources and services.